Location: Black Swamp Observatory
(41.3920°N, 84.1250°W)
Time: 18:35:00
(UTC-04:00)

Tiangong - Visible Passes

Search period start: 04 October 2023 00:00
Search period end: 14 October 2023 00:00
Orbit: 370 x 384 km, 41.5° (Epoch: 04 October)

Date Brightness Start Highest point End Pass type
(mag) Time Alt. Az. Time Alt. Az. Time Alt. Az.
04 Oct -2.3 20:49:32 10° W 20:52:36 85° WNW 20:52:36 85° WNW visible
05 Oct -2.2 19:47:19 10° W 19:50:28 87° N 19:53:17 12° E visible
05 Oct 0.3 21:24:01 10° W 21:25:20 22° W 21:25:20 22° W visible
06 Oct -2.2 20:21:42 10° W 20:24:50 83° S 20:25:56 37° ESE visible
07 Oct -1.1 20:55:59 10° W 20:58:29 40° SW 20:58:29 40° SW visible
08 Oct -2.0 19:53:26 10° W 19:56:33 67° SSW 19:58:58 15° ESE visible
08 Oct 1.1 21:30:33 10° WSW 21:31:00 12° WSW 21:31:00 12° WSW visible
09 Oct -0.8 20:27:35 10° W 20:30:26 31° SSW 20:31:27 25° SSE visible
10 Oct 0.7 21:02:33 10° WSW 21:03:55 13° SW 21:03:55 13° SW visible
11 Oct 0.0 19:58:54 10° W 20:01:23 21° SSW 20:03:51 10° SSE visible
13 Oct 0.7 19:30:04 10° WSW 19:31:53 14° SSW 19:33:41 10° S visible
